Regional Weather Roundup
Issued by NWS

Home | Current Version | Previous Version | Text Only | Print | Product List | Glossary On
Versions: 1 2 3 4 5 6 7 8 9 10 11 12 13 14 15 16 17 18 19 20 21 22 23 24 25 26 27 28 29 30 31 32 33 34 35 36 37 38 39 40 41 42 43 44 45 46 47 48 49 50
176
ASUS44 KJAN 271310
RWRMS

MISSISSIPPI HOURLY WEATHER ROUNDUP
NATIONAL WEATHER SERVICE JACKSON MS
800 AM CDT WED AUG 27 2014

NOTE: "FAIR: INDICATES FEW OR NO CLOUDS BELOW 12,000 FEET WITH NO
SIGNIFICANT WEATHER AND/OR OBSTRUCTIONS TO VISIBILITY.

MSZ001>002-007>008-010>013-018>021-025>028-034>036-271400-
NORTHWEST MISSISSIPPI

CITY           SKY/WX    TMP DP  RH WIND       PRES   REMARKS
CLARKSDALE     FAIR      75  72  88 CALM      30.08S
CLEVELAND      FAIR      72  70  92 CALM      30.06R
GREENWOOD      MOSUNNY   71  67  87 CALM      30.06S
GREENVILLE     SUNNY     73  69  87 CALM      30.06R
GRENADA        FAIR      73  68  83 E5        30.07S
OLIVE BRANCH   MOSUNNY   73  73 100 CALM      30.09S
OXFORD         FAIR      73  66  78 SE3       30.10R
TUNICA         SUNNY     73  70  88 CALM      30.08S
$$

MSZ003>006-009-014>017-022>024-029>033-037>039-271400-
NORTHEAST MISSISSIPPI

CITY           SKY/WX    TMP DP  RH WIND       PRES   REMARKS
BELMONT        FAIR      70  68  93 CALM      30.11R
COLUMBUS AFB   SUNNY     71  67  87 CALM      30.08S
CORINTH        FAIR      70  68  94 CALM      30.09S FOG
GOLDN TRIANGLE SUNNY     72  64  78 CALM      30.09R
STARKVILLE     FAIR      70  66  88 CALM      30.08S
TUPELO         SUNNY     72  68  87 NE3       30.09R
$$

MSZ040-058-271400-
CENTRAL MISSISSIPPI

CITY           SKY/WX    TMP DP  RH WIND       PRES   REMARKS
JACKSON INTL   MOSUNNY   74  67  78 E3        30.06R
JACKSON HAWKNS SUNNY     76  67  73 E5        30.07R
MERIDIAN KEY   SUNNY     72  65  78 NE5       30.08R
MERIDIAN NAS   MOSUNNY   70  64  81 CALM      30.08R
RAYMOND        FAIR      72  66  83 MISG      30.06R
VICKSBURG      SUNNY     76  69  79 NE5       30.05R
$$

MSZ059>079-271400-
SOUTH MISSISSIPPI

CITY           SKY/WX    TMP DP  RH WIND       PRES   REMARKS
BROOKHAVEN     FAIR      73  68  83 CALM      30.07S
COLUMBIA       PTSUNNY   72  68  88 MISG      30.04R
HATTIESBURG    SUNNY     76  68  76 N3        30.05R
MCCOMB         MOSUNNY   73  66  78 NE3       30.05R
NATCHEZ        SUNNY     73  66  78 E5        30.05R
PINE BELT      MOSUNNY   73  64  73 N7        30.07R
$$

MSZ080>082-271400-
COASTAL MISSISSIPPI

CITY           SKY/WX    TMP DP  RH WIND       PRES   REMARKS
BAY ST LOUIS   SUNNY    N/A N/A N/A CALM      30.02R
BILOXI         SUNNY     78  71  77 NE7       30.01R
PASCAGOULA     SUNNY     77  71  82 NE3       30.01R
GULFPORT       SUNNY     79  71  76 NE6       30.01R
$$



USA.gov is the U.S. government's official web portal to all federal, state and local government web resources and services.